Flag for United Arab Emirates Weather past 2 weeks in Sharjah, Sharjah, United Arab Emirates

Now
75 °F

Sunny.


Feels Like: 77 °F
Forecast: 63 / 79 °F
Wind: 10 mph from Northwest

Location: Sharjah International Airport

Current Time: Mar 1, 2015 at 3:13:38 PM

Latest Report: Mar 1, 2015 at 2:00 PM


Visibility: 10 mi

Pressure: 29.92 "Hg

Humidity: 27%

Dew point: 39 °F

Location of SharjahLocation

Historic Weather in Sharjah — Graph

°F

Sharjah temperature yesterday

Maximum temperature yesterday: 73 °F (at 12:00 PM)
Minimum temperature yesterday: 54 °F (at 4:00 AM)
Average temperature yesterday: 64 °F

Past Weeks' High & Low Weather Summary

 TemperatureHumidityPressure
High95 °F (Feb 19, 2:00 PM)88% (Feb 16, 2:00 AM)30.09 "Hg (Feb 16, 2:00 AM)
Low52 °F (Mar 1, 4:00 AM)8% (Feb 19, 2:00 PM)29.56 "Hg (Feb 21, 7:00 AM)
Average72 °F44%29.92 "Hg
* Reported Feb 14 2:00 PM — Mar 1 2:00 PM, Sharjah, Weather by CustomWeather, © 2015

Note: Actual official high and low records may vary slightly from our data, if they occured in-between our weather recording intervals... More about our weather records

Advertising

Sharjah weather history for previous 24 hours

 ConditionsComfort  
Time TempWeatherWind HumidityBarometerVisibility
2:00 PM
Sun, Mar 1
75 °FSunny.10 mph27%29.92 "Hg10 mi
1:00 PM75 °FSunny.3 mph25%29.95 "Hg10 mi
12:00 PM73 °FSunny.3 mph27%29.98 "Hg10 mi
11:00 AM72 °FSunny.5 mph33%30.01 "Hg10 mi
10:00 AM70 °FSunny.3 mph35%30.01 "Hg10 mi
9:00 AM64 °FSunny.6 mph40%30.01 "Hg10 mi
8:00 AM57 °FSunny.6 mph48%29.98 "Hg10 mi
7:00 AM52 °FSunny.5 mph54%29.98 "Hg10 mi
6:00 AM52 °FClear.3 mph54%29.95 "Hg10 mi
5:00 AM52 °FClear.7 mph54%29.95 "Hg10 mi
4:00 AM52 °FClear.3 mph54%29.95 "Hg10 mi
3:00 AM57 °FClear.3 mph44%29.95 "Hg10 mi
2:00 AM59 °FClear.3 mph42%29.98 "Hg10 mi
1:00 AM57 °FClear.5 mph48%29.98 "Hg10 mi
12:00 AM59 °FClear.3 mph45%29.98 "Hg10 mi
11:00 PM
Sat, Feb 28
57 °FClear.3 mph44%29.98 "Hg10 mi
10:00 PM64 °FClear.1 mph37%30.01 "Hg10 mi
9:00 PM63 °FClear.3 mph42%30.01 "Hg10 mi
8:00 PM64 °FClear.5 mph37%29.98 "Hg10 mi
7:00 PM66 °FClear.6 mph35%29.98 "Hg10 mi
6:00 PM70 °FSunny.9 mph25%29.95 "Hg10 mi
5:00 PM72 °FSunny.20 mph27%29.95 "Hg10 mi
4:00 PM73 °FSunny.13 mph23%29.95 "Hg10 mi
Weather by CustomWeather, © 2015

See weather overviewHow to use our weather pages